• In Portugal
  • List of Countries
  • For 7 days
  • Water Temperature
  • Satellite Maps
  • Weather Map
  • Weather Widgets
  • user-avatar
    Login

    Hourly Weather Belmopan

    Today, 24 January, Wednesday

    Time Temperature Precipitation Wind Pressure Humidity
    00:00 +21°C° 0.1 mm 0 mps 754 mmHg 99%
    01:00 +21°C° 0.5 mm 0 mps 754 mmHg 99%
    02:00 +21°C° 0.5 mm 0 mps 754 mmHg 99%
    03:00 +21°C° 0.5 mm 0 mps 754 mmHg 99%
    04:00 +21°C° 0.8 mm 0 mps 754 mmHg 99%
    05:00 +23°C° 0.8 mm 1 mps 754 mmHg 99%
    06:00 +23°C° 0.8 mm 1 mps 754 mmHg 99%
    07:00 +23°C° 0.4 mm 1 mps 755 mmHg 98%
    08:00 +24°C° 0.4 mm 1 mps 756 mmHg 97%
    09:00 +24°C° 0.4 mm 1 mps 756 mmHg 96%
    10:00 +25°C° 0.4 mm 1 mps 756 mmHg 95%
    11:00 +25°C° 0.4 mm 1 mps 756 mmHg 93%
    12:00 +26°C° 0.4 mm 1 mps 756 mmHg 92%
    13:00 +27°C° 0.3 mm 1 mps 755 mmHg 86%
    14:00 +27°C° 0.3 mm 1 mps 754 mmHg 80%
    15:00 +28°C° 0.3 mm 1 mps 754 mmHg 75%
    16:00 +27°C° 0.2 mm 1 mps 754 mmHg 80%
    17:00 +26°C° 0.2 mm 1 mps 754 mmHg 86%
    18:00 +24°C° 0.2 mm 1 mps 754 mmHg 92%
    19:00 +24°C° 0.1 mm 1 mps 755 mmHg 94%
    20:00 +23°C° 0.1 mm 1 mps 755 mmHg 96%
    21:00 +23°C° 0.1 mm 1 mps 756 mmHg 98%
    22:00 +23°C° 0.3 mm 1 mps 756 mmHg 98%
    23:00 +23°C° 0.3 mm 1 mps 756 mmHg 99%

    Tomorrow, 25 January, Thursday

    Time Temperature Precipitation Wind Pressure Humidity
    00:00 +21°C° 0.3 mm 0 mps 756 mmHg 99%
    01:00 +23°C° 0.6 mm 1 mps 756 mmHg 99%
    02:00 +23°C° 0.6 mm 1 mps 755 mmHg 99%
    03:00 +23°C° 0.6 mm 1 mps 755 mmHg 99%
    04:00 +23°C° 0.4 mm 1 mps 755 mmHg 99%
    05:00 +23°C° 0.4 mm 1 mps 755 mmHg 99%
    06:00 +23°C° 0.4 mm 1 mps 755 mmHg 99%
    07:00 +23°C° 0.5 mm 1 mps 756 mmHg 98%
    08:00 +24°C° 0.5 mm 1 mps 757 mmHg 97%
    09:00 +24°C° 0.5 mm 1 mps 757 mmHg 97%
    10:00 +25°C° 0.4 mm 1 mps 757 mmHg 94%
    11:00 +25°C° 0.4 mm 1 mps 757 mmHg 92%
    12:00 +26°C° 0.4 mm 1 mps 757 mmHg 89%
    13:00 +26°C° 0.7 mm 1 mps 756 mmHg 89%
    14:00 +27°C° 0.7 mm 1 mps 755 mmHg 88%
    15:00 +27°C° 0.7 mm 1 mps 754 mmHg 87%
    16:00 +26°C° 0.5 mm 1 mps 754 mmHg 90%
    17:00 +25°C° 0.5 mm 1 mps 754 mmHg 94%
    18:00 +24°C° 0.5 mm 1 mps 755 mmHg 98%
    19:00 +23°C° 0.8 mm 1 mps 755 mmHg 98%
    20:00 +23°C° 0.8 mm 1 mps 756 mmHg 98%
    21:00 +20°C° 0.8 mm 0 mps 756 mmHg 99%
    22:00 +20°C° 0.8 mm 0 mps 756 mmHg 99%
    23:00 +20°C° 0.8 mm 0 mps 756 mmHg 99%

    Day after tomorrow, 26 January, Friday

    Time Temperature Precipitation Wind Pressure Humidity
    00:00 +20°C° 0.8 mm 0 mps 756 mmHg 99%
    01:00 +20°C° 0.7 mm 0 mps 755 mmHg 99%
    02:00 +20°C° 0.7 mm 0 mps 755 mmHg 99%
    03:00 +20°C° 0.7 mm 0 mps 755 mmHg 99%
    04:00 +20°C° 1.3 mm 0 mps 755 mmHg 99%
    05:00 +20°C° 1.3 mm 0 mps 755 mmHg 99%
    06:00 +20°C° 1.3 mm 0 mps 755 mmHg 99%
    07:00 +21°C° 1.6 mm 0 mps 756 mmHg 98%
    08:00 +22°C° 1.6 mm 0 mps 756 mmHg 97%
    09:00 +25°C° 1.6 mm 1 mps 757 mmHg 96%
    10:00 +25°C° 0.9 mm 1 mps 756 mmHg 96%
    11:00 +25°C° 0.9 mm 1 mps 756 mmHg 96%
    12:00 +25°C° 0.9 mm 2 mps 756 mmHg 96%
    13:00 +25°C° 0.5 mm 2 mps 755 mmHg 95%
    14:00 +25°C° 0.5 mm 2 mps 754 mmHg 95%
    15:00 +25°C° 0.5 mm 2 mps 753 mmHg 94%
    16:00 +25°C° 0.2 mm 1 mps 753 mmHg 96%
    17:00 +24°C° 0.2 mm 1 mps 753 mmHg 97%
    18:00 +24°C° 0.2 mm 1 mps 753 mmHg 98%
    19:00 +23°C° 0.1 mm 1 mps 754 mmHg 99%
    20:00 +23°C° 0.1 mm 1 mps 754 mmHg 99%
    21:00 +23°C° 0.1 mm 1 mps 755 mmHg 99%
    22:00 +21°C° 0.1 mm 0 mps 755 mmHg 99%
    23:00 +21°C° 0.1 mm 0 mps 754 mmHg 99%

    27 January, Saturday

    Time Temperature Precipitation Wind Pressure Humidity
    00:00 +21°C° 0.1 mm 0 mps 754 mmHg 99%
    01:00 +21°C° 0.1 mm 0 mps 754 mmHg 99%
    02:00 +21°C° 0.1 mm 0 mps 753 mmHg 99%
    03:00 +21°C° 0.1 mm 0 mps 753 mmHg 99%
    04:00 +21°C° 0.1 mm 0 mps 753 mmHg 99%
    05:00 +21°C° 0.1 mm 0 mps 753 mmHg 99%
    06:00 +21°C° 0.1 mm 0 mps 753 mmHg 99%
    07:00 +21°C° 0.1 mm 0 mps 754 mmHg 98%
    08:00 +22°C° 0.1 mm 0 mps 754 mmHg 97%
    09:00 +23°C° 0.1 mm 0 mps 755 mmHg 95%
    10:00 +26°C° 0.6 mm 1 mps 754 mmHg 89%
    11:00 +27°C° 0.6 mm 1 mps 754 mmHg 83%
    12:00 +29°C° 0.6 mm 1 mps 753 mmHg 77%
    13:00 +29°C° 0.6 mm 1 mps 753 mmHg 75%
    14:00 +29°C° 0.6 mm 1 mps 752 mmHg 73%
    15:00 +30°C° 0.6 mm 2 mps 751 mmHg 70%
    16:00 +28°C° 0.1 mm 1 mps 751 mmHg 77%
    17:00 +27°C° 0.1 mm 1 mps 751 mmHg 83%
    18:00 +25°C° 0.1 mm 1 mps 751 mmHg 89%
    19:00 +24°C° 0 mm 1 mps 752 mmHg 92%
    20:00 +24°C° 0 mm 1 mps 753 mmHg 95%
    21:00 +23°C° 0 mm 1 mps 753 mmHg 98%
    22:00 +21°C° 0 mm 0 mps 753 mmHg 98%
    23:00 +21°C° 0 mm 0 mps 753 mmHg 99%

    28 January, Sunday

    Time Temperature Precipitation Wind Pressure Humidity
    00:00 +21°C° 0 mm 0 mps 753 mmHg 99%
    01:00 +21°C° 0.1 mm 0 mps 753 mmHg 99%
    02:00 +21°C° 0.1 mm 0 mps 752 mmHg 99%
    03:00 +21°C° 0.1 mm 0 mps 752 mmHg 99%
    04:00 +21°C° 0.1 mm 0 mps 752 mmHg 99%
    05:00 +21°C° 0.1 mm 0 mps 753 mmHg 99%
    06:00 +21°C° 0.1 mm 0 mps 753 mmHg 99%
    07:00 +22°C° 0.1 mm 0 mps 754 mmHg 97%
    08:00 +23°C° 0.1 mm 0 mps 754 mmHg 95%
    09:00 +25°C° 0.1 mm 1 mps 755 mmHg 94%
    10:00 +26°C° 0.7 mm 1 mps 754 mmHg 90%
    11:00 +27°C° 0.7 mm 1 mps 754 mmHg 87%
    12:00 +28°C° 0.7 mm 1 mps 754 mmHg 84%
    13:00 +28°C° 1.7 mm 1 mps 753 mmHg 86%
    14:00 +28°C° 1.7 mm 1 mps 752 mmHg 88%
    15:00 +28°C° 1.7 mm 1 mps 752 mmHg 90%
    16:00 +27°C° 0.5 mm 1 mps 752 mmHg 92%
    17:00 +26°C° 0.5 mm 1 mps 752 mmHg 93%
    18:00 +25°C° 0.5 mm 1 mps 753 mmHg 95%
    19:00 +24°C° 0.6 mm 1 mps 753 mmHg 96%
    20:00 +24°C° 0.6 mm 1 mps 754 mmHg 97%
    21:00 +23°C° 0.6 mm 1 mps 754 mmHg 99%
    22:00 +23°C° 0.4 mm 1 mps 754 mmHg 99%
    23:00 +23°C° 0.4 mm 1 mps 754 mmHg 99%

    29 January, Monday

    Time Temperature Precipitation Wind Pressure Humidity
    00:00 +23°C° 0.4 mm 1 mps 754 mmHg 99%
    01:00 +23°C° 0.3 mm 1 mps 754 mmHg 99%
    02:00 +23°C° 0.3 mm 1 mps 754 mmHg 99%
    03:00 +23°C° 0.3 mm 1 mps 753 mmHg 99%
    04:00 +23°C° 0.2 mm 1 mps 754 mmHg 99%
    05:00 +23°C° 0.2 mm 1 mps 754 mmHg 99%
    06:00 +23°C° 0.2 mm 1 mps 755 mmHg 99%
    07:00 +23°C° 0.3 mm 1 mps 755 mmHg 99%
    08:00 +24°C° 0.3 mm 1 mps 756 mmHg 98%
    09:00 +24°C° 0.3 mm 1 mps 756 mmHg 97%
    10:00 +25°C° 0.4 mm 1 mps 756 mmHg 96%
    11:00 +25°C° 0.4 mm 1 mps 756 mmHg 94%
    12:00 +26°C° 0.4 mm 2 mps 756 mmHg 93%
    13:00 +26°C° 0.5 mm 2 mps 755 mmHg 93%
    14:00 +26°C° 0.5 mm 2 mps 755 mmHg 93%
    15:00 +26°C° 0.5 mm 2 mps 754 mmHg 93%
    16:00 +25°C° 0.5 mm 1 mps 754 mmHg 95%
    17:00 +24°C° 0.5 mm 1 mps 755 mmHg 96%
    18:00 +24°C° 0.5 mm 1 mps 755 mmHg 98%
    19:00 +23°C° 0.4 mm 1 mps 755 mmHg 98%
    20:00 +23°C° 0.4 mm 1 mps 756 mmHg 99%
    21:00 +23°C° 0.4 mm 1 mps 756 mmHg 99%
    22:00 +23°C° 0.6 mm 1 mps 756 mmHg 99%
    23:00 +23°C° 0.6 mm 1 mps 756 mmHg 99%
    Show more